[Iaude] MPEC H98: 2024 HX1 [a=1.09,e=0.52,i=5.6,H=26.4]
    mpec at cfa.harvard.edu 
    mpec at cfa.harvard.edu
       
    Tue Apr 30 02:07:50 EDT 2024
    
    
  
M.P.E.C. 2024-H98                                Issued 2024 April 30, 06:06 UT
     The Minor Planet Electronic Circulars contain information on unusual
         minor planets, routine data on comets and natural satellites,
         and occasional editorial announcements.  They are published
    on behalf of Division F of the International Astronomical Union by the
          Minor Planet Center, Smithsonian Astrophysical Observatory,
                          Cambridge, MA 02138, U.S.A.
			  
             Prepared using the Tamkin Foundation Computer Network
                              MPC at CFA.HARVARD.EDU
            URL https://www.minorplanetcenter.net/    ISSN 1523-6714
                                    2024 HX1                                    
Observations:
     K24H01X*1C2024 04 29.22883613 29 33.749-24 32 58.49         19.31GVEH098G96
     K24H01X 1C2024 04 29.24459213 29 35.484-24 26 43.76         19.97GVEH098G96
     K24H01X 1C2024 04 29.25034113 29 36.067-24 24 27.32         19.58GVEH098G96
     K24H01X KB2024 04 29.30236 13 29 41.13 -24 04 06.0          19.9 VZEH098V24
     K24H01X KB2024 04 29.30739 13 29 41.64 -24 02 09.4          19.1 VZEH098V24
     K24H01X KB2024 04 29.31227 13 29 42.11 -24 00 16.0          20.2 VZEH098V24
     K24H01X KC2024 04 29.32677113 29 44.100-23 54 44.90         20.01GVEH098I52
     K24H01X KC2024 04 29.32759713 29 44.200-23 54 25.80         19.82GVEH098I52
     K24H01X KC2024 04 30.22640013 32 16.04 -19 19 25.2          19.8 GXEH098858
     K24H01X mC2024 04 30.23215613 32 17.387-19 17 53.66         20.98GVEH098I52
     K24H01X mC2024 04 30.23256913 32 17.394-19 17 47.83         20.27GVEH098I52
     K24H01X mC2024 04 30.23299513 32 17.416-19 17 41.68         20.03GVEH098I52
     K24H01X mC2024 04 30.23340813 32 17.434-19 17 35.41         19.77GVEH098I52
     K24H01X KC2024 04 30.23341813 32 16.37 -19 17 41.5          20.0 GXEH098858
     K24H01X KC2024 04 30.24030813 32 16.65 -19 16 00.7          20.1 GXEH098858
Observer details:
858 Tebbutt Observatory, Edgewood.  Observer F. B. Zoltowski.  0.51-m f/8.1
    Schmidt-Cassegrain + CCD.
G96 Mt. Lemmon Survey.  Observer J. B. Fazekas.  Measurers T. Beuden, V. F.
    Carvajal, D. Fay, J. B. Fazekas, D. C. Fuls, A. R. Gibbs, A. D. Grauer, H.
    Groeller, J. K. Hogan, R. A. Kowalski, S. M. Larson, G. J. Leonard, D.
    Rankin, R. L. Seaman, F. C. Shelly, K. W. Wierzchos.  1.5-m reflector +
    10K CCD.
I52 Steward Observatory, Mt. Lemmon Station.  Observers R. A. Kowalski, V. F.
    Carvajal, G. J. Leonard.  Measurers T. Beuden, V. F. Carvajal, D. Fay, J.
    B. Fazekas, D. C. Fuls, A. R. Gibbs, A. D. Grauer, H. Groeller, J. K.
    Hogan, R. A. Kowalski, S. M. Larson, G. J. Leonard, D. Rankin, R. L.
    Seaman, F. C. Shelly, K. W. Wierzchos.  1.0-m prime focus + CCD.
V24 Sonoran Desert Skies Observatory, Pearce.  Observer A. Helms.  0.32-m
    f/6.7 reflector + CMO.
Orbital elements:
2024 HX1                                                 Earth MOID = 0.0122 AU
Epoch 2024 Mar. 31.0 TT = JDT 2460400.5                 MPC                     
M  29.23047              (2000.0)            P               Q                  
n   0.86083890     Peri.  239.01768     -0.20709127     -0.97602350             
a   1.0944303      Node   223.09974     +0.92771956     -0.17417277             
e   0.5245455      Incl.    5.62880     +0.31056339     -0.13054488             
P   1.14           H   26.48          G   0.15           U   8                  
Residuals in seconds of arc
240429 G96  0.2-  0.1-    240429 V24  0.8-  0.9+    240430 I52  0.0   0.1-
240429 G96  0.3+  0.1-    240429 I52  0.1-  0.2-    240430 I52  0.0   0.2-
240429 G96  0.1-  0.2+    240429 I52  0.1+  0.0     240430 I52  0.0   0.1+
240429 V24  0.1+  0.5+    240430 858  0.0   0.2+    240430 858  0.1+  0.6+
240429 V24  0.1-  0.5+    240430 I52  0.1+  0.2+    240430 858  0.4-  0.2+
Ephemeris:
2024 HX1                 a,e,i = 1.09, 0.52, 6                   q = 0.5204
Date    TT    R. A. (2000) Decl.     Delta      r    Elong.  Phase     V
2024 03 31    01 39 21.0 -00 12 54   0.2606  0.7517    15.8   158.7    33.5
...
2024 04 15    01 43 43.6 -05 11 29   0.1048  0.9025    15.2   163.1    33.6
...
2024 04 23    01 51 32.9 -22 04 55   0.03139 0.9798    34.7   144.2    26.4
...
2024 04 29    13 28 36.2 -26 06 39   0.02970 1.0353   162.2    17.3    19.8
2024 04 30    13 31 43.8 -20 15 14   0.03833 1.0444   165.2    14.3    20.3
2024 05 01    13 33 36.1 -16 34 11   0.04723 1.0533   165.5    13.8    20.8
...
2024 05 07    13 38 06.8 -08 18 25   0.1029  1.1058   159.1    19.0    22.7
...
2024 05 15    13 41 23.6 -05 38 38   0.1804  1.1718   150.9    24.8    24.3
...
2024 05 30    13 49 21.2 -04 56 21   0.3362  1.2837   138.1    31.9    26.0
A. U. Tomatic                (C) Copyright 2024 MPC           M.P.E.C. 2024-H98
    
    
More information about the Iaude
mailing list